Time,TemperatureF,DewpointF,PressureIn,WindDirection,WindDirectionDegrees,WindSpeedMPH,WindSpeedGustMPH,Humidity,HourlyPrecipIn,Conditions,Clouds,dailyrainin,SoftwareType,DateUTC
2015-07-05 00:23:00,55.0,54.0,29.89,ESE,115,1.0,4.0,95,-99.99,,,-99.99,,2015-07-05 04:23:00,
2015-07-05 00:33:00,55.0,54.0,29.89,ESE,115,1.0,4.0,95,-99.99,,,-99.99,,2015-07-05 04:33:00,
2015-07-05 00:43:00,55.0,54.0,29.89,ESE,115,1.0,4.0,95,-99.99,,,-99.99,,2015-07-05 04:43:00,
2015-07-05 00:53:00,55.0,54.0,29.89,ESE,115,1.0,4.0,95,-99.99,,,-99.99,,2015-07-05 04:53:00,
2015-07-05 01:23:00,57.0,53.0,29.91,SE,124,3.0,8.0,87,-99.99,,,-99.99,,2015-07-05 05:23:00,
2015-07-05 01:33:00,57.0,53.0,29.91,SE,124,3.0,8.0,87,-99.99,,,-99.99,,2015-07-05 05:33:00,
2015-07-05 01:43:00,57.0,53.0,29.91,SE,124,3.0,8.0,87,-99.99,,,-99.99,,2015-07-05 05:43:00,
2015-07-05 01:53:00,57.0,53.0,29.91,SE,124,3.0,8.0,87,-99.99,,,-99.99,,2015-07-05 05:53:00,
2015-07-05 02:23:00,56.0,53.0,29.91,SE,145,3.0,6.0,89,-99.99,,,-99.99,,2015-07-05 06:23:00,
2015-07-05 02:33:00,56.0,53.0,29.91,SE,145,3.0,6.0,89,-99.99,,,-99.99,,2015-07-05 06:33:00,
2015-07-05 02:44:00,56.0,53.0,29.91,SE,145,3.0,6.0,89,-99.99,,,-99.99,,2015-07-05 06:44:00,
2015-07-05 02:53:00,56.0,53.0,29.91,SE,145,3.0,6.0,89,-99.99,,,-99.99,,2015-07-05 06:53:00,
2015-07-05 03:23:00,55.0,53.0,29.90,SE,135,2.0,5.0,93,-99.99,,,-99.99,,2015-07-05 07:23:00,
2015-07-05 03:33:00,55.0,53.0,29.90,SE,135,2.0,5.0,93,-99.99,,,-99.99,,2015-07-05 07:33:00,
2015-07-05 03:44:00,55.0,53.0,29.90,SE,135,2.0,5.0,93,-99.99,,,-99.99,,2015-07-05 07:44:00,
2015-07-05 03:53:00,55.0,53.0,29.90,SE,135,2.0,5.0,93,-99.99,,,-99.99,,2015-07-05 07:53:00,
2015-07-05 04:23:00,60.0,55.0,29.90,SE,145,4.0,8.0,84,-99.99,,,-99.99,,2015-07-05 08:23:00,
2015-07-05 04:33:00,60.0,55.0,29.90,SE,145,4.0,8.0,84,-99.99,,,-99.99,,2015-07-05 08:33:00,
2015-07-05 04:43:00,60.0,55.0,29.90,SE,145,4.0,8.0,84,-99.99,,,-99.99,,2015-07-05 08:43:00,
2015-07-05 04:53:00,60.0,55.0,29.90,SE,145,4.0,8.0,84,-99.99,,,-99.99,,2015-07-05 08:53:00,
2015-07-05 05:23:00,59.0,55.0,29.88,SSE,152,5.0,9.0,86,-99.99,,,-99.99,,2015-07-05 09:23:00,
2015-07-05 05:34:00,59.0,55.0,29.88,SSE,152,5.0,9.0,86,-99.99,,,-99.99,,2015-07-05 09:34:00,
2015-07-05 05:43:00,59.0,55.0,29.88,SSE,152,5.0,9.0,86,-99.99,,,-99.99,,2015-07-05 09:43:00,
2015-07-05 05:53:00,59.0,55.0,29.88,SSE,152,5.0,9.0,86,-99.99,,,-99.99,,2015-07-05 09:53:00,
2015-07-05 06:23:00,59.0,55.0,29.90,SE,143,5.0,10.0,87,-99.99,,,-99.99,,2015-07-05 10:23:00,
2015-07-05 06:33:00,59.0,55.0,29.90,SE,143,5.0,10.0,87,-99.99,,,-99.99,,2015-07-05 10:33:00,
2015-07-05 06:43:00,59.0,55.0,29.90,SE,143,5.0,10.0,87,-99.99,,,-99.99,,2015-07-05 10:43:00,
2015-07-05 06:53:00,59.0,55.0,29.90,SE,143,5.0,10.0,87,-99.99,,,-99.99,,2015-07-05 10:53:00,